Montauk, NY

3:31 AM EDT on April 26, 2018 (GMT -0400)
Montauk

Weather History for KMTP - October, 2011

Change the Weather History Date:

Thursday, October 6, 2011

  Actual Average (KHTO) Record (KHTO)
Temperature  
Mean Temperature 59 °F -  
Max Temperature 64 °F 66 °F 88 °F (1941)
Min Temperature 54 °F 47 °F 29 °F (1984)
Degree Days  
Heating Degree Days 6    
Growing Degree Days 9 (Base 50)    
Moisture  
Dew Point 34 °F    
Average Humidity 39    
Maximum Humidity 51    
Minimum Humidity 28    
Precipitation  
Precipitation 0.00 in - - ()
Sea Level Pressure  
Sea Level Pressure 30.30 in    
Wind  
Wind Speed 8 mph (NW)    
Max Wind Speed 16 mph    
Max Gust Speed 16 mph    
Averages and records for this station are not official NWS values.
T = Trace of Precipitation, MM = Missing Value Source: NWS Daily Summary

Daily Weather History Graph

Daily Weather History Graph

Search for Another Location

Airport or City:

Astronomy

Oct. 06, 2011 Rise Set
Actual Time 6:49 AM EDT 6:21 PM EDT
Civil Twilight 6:21 AM EDT 6:49 PM EDT
Nautical Twilight 5:49 AM EDT 7:21 PM EDT
Astronomical Twilight 5:17 AM EDT 7:53 PM EDT
Moon 3:35 PM EDT (10/6) 1:32 AM EDT (10/6)
Length of Visible Light 12h 27m
Length of Day
11h 32m
Waxing Gibbous, 75% of the Moon is Illuminated
Oct 6
Waxing Gibbous
Oct 11
Full
Oct 19
Last Quarter
Oct 26
New
Nov 2
First Quarter

Hourly Weather History & Observations

Time (EDT) Temp. Dew Point Humidity Pressure Visibility Wind Dir Wind Speed Gust Speed Precip Events Conditions
12:54 AM 55.0 °F 30.9 °F 40% 30.28 in - North 9.2 mph 16.1 mph N/A   Unknown
1:54 AM 55.0 °F 28.0 °F 35% 30.29 in - North 6.9 mph - N/A   Unknown
2:54 AM 54.0 °F 28.9 °F 38% 30.29 in - NNW 8.1 mph - N/A   Unknown
3:54 AM 54.0 °F 30.9 °F 41% 30.29 in - NW 4.6 mph - N/A   Unknown
4:54 AM 55.0 °F 32.0 °F 42% 30.29 in - NW 8.1 mph - N/A   Unknown
5:54 AM 55.0 °F 35.1 °F 47% 30.30 in - NW 10.4 mph - N/A   Unknown
6:54 AM 54.0 °F 36.0 °F 51% 30.31 in - NNW 16.1 mph - N/A   Unknown
7:54 AM 55.0 °F 35.1 °F 47% 30.32 in - NW 10.4 mph - N/A   Unknown
8:54 AM 55.0 °F 32.0 °F 42% 30.34 in - NNW 11.5 mph - N/A   Unknown
9:54 AM 55.9 °F 32.0 °F 40% 30.34 in - NNW 10.4 mph - N/A   Unknown
10:54 AM 57.9 °F 34.0 °F 41% 30.33 in - Variable 6.9 mph - N/A   Unknown
11:54 AM 57.9 °F 32.0 °F 37% 30.32 in - West 10.4 mph - N/A   Unknown
12:54 PM 60.1 °F 33.1 °F 36% 30.31 in - West 8.1 mph - N/A   Unknown
1:54 PM 62.1 °F 32.0 °F 32% 30.28 in - WNW 8.1 mph - N/A   Unknown
2:54 PM 64.0 °F 30.0 °F 28% 30.26 in - WNW 11.5 mph - N/A   Unknown
3:54 PM 63.0 °F 37.0 °F 38% 30.26 in - West 9.2 mph - N/A   Unknown
4:54 PM 63.0 °F 36.0 °F 37% 30.26 in - West 5.8 mph - N/A   Unknown
5:54 PM 63.0 °F 37.9 °F 40% 30.28 in - Variable 3.5 mph - N/A   Unknown
6:54 PM 62.1 °F 36.0 °F 38% 30.30 in - NW 8.1 mph - N/A   Unknown
7:54 PM 63.0 °F 33.1 °F 33% 30.31 in - NW 6.9 mph - N/A   Unknown
8:54 PM 62.1 °F 34.0 °F 35% 30.32 in - NW 8.1 mph - N/A   Unknown
9:54 PM 61.0 °F 35.1 °F 38% 30.33 in - Variable 5.8 mph - N/A   Unknown
10:54 PM 61.0 °F 35.1 °F 38% 30.34 in - NW 4.6 mph - N/A   Unknown
11:54 PM 59.0 °F 37.9 °F 46% 30.34 in - NNW 4.6 mph - N/A   Unknown